Hourly Data Report for January 20, 2003

TORONTO CITY
ONTARIO

43°40'00.000" N
79°24'00.000" W
112.50 m
6158355
71508
XTO

Download Data

Hourly Data (January 2003)
Hourly Data Report for January 20, 2003
TIME
LST
Temp Definition
°C
Dew Point Definition
°C
Rel Hum Definition
%
Precip. Amount Definition
mm

Wind Dir Definition
10's deg

Wind Spd Definition
km/h
Visibility Definition
km
Stn Press Definition
kPa
Hmdx Definition


Wind Chill Definition


Weather Definition


00:00 -7.5 -10.9 77     0 LegendMM 98.56     LegendNANA
01:00
02:00 -7.8 -10.7 80     0 LegendMM 98.55     LegendNANA
03:00 -7.6 -12.6 67     0 LegendMM 98.65     LegendNANA
04:00 -8.2 -14.1 62     0 LegendMM 98.67     LegendNANA
05:00
06:00 -9.0 -12.2 78     0 LegendMM 98.89     LegendNANA
07:00 -9.3 -15.7 60     0 LegendMM 99.00     LegendNANA
08:00 -10.0 -16.0 61     0 LegendMM 99.12     LegendNANA
09:00 -9.6 -16.4 58     0 LegendMM 99.26     LegendNANA
10:00 -9.3 -17.7 50     0 LegendMM 99.40     LegendNANA
11:00 -8.6 -18.5 45     0 LegendMM 99.51     LegendNANA
12:00
13:00 -7.5 -18.9 40     0 LegendMM 99.61     LegendNANA
14:00 -8.5 -20.7 37     0 LegendMM 99.67     LegendNANA
15:00 -8.9 -21.0 37     0 LegendMM 99.76     LegendNANA
16:00 -9.1 -20.3 40     0 LegendMM 99.90     LegendNANA
17:00 -9.7 -20.3 42     0 LegendMM 99.96     LegendNANA
18:00
19:00 -10.6 -18.0 54     0 LegendMM 100.09     LegendNANA
20:00 -10.8 -16.9 61     0 LegendMM 100.15     LegendNANA
21:00 -11.0 -16.4 64     0 LegendMM 100.18     LegendNANA
22:00 -10.9 -15.6 68     0 LegendMM 100.13     LegendNANA
23:00 -10.0 -13.7 74     0 LegendMM 100.08     LegendNANA

Notes on Data Quality.

Legend

  • E = Estimated
  • M = Missing
  • NA = Not Available*
  • [empty] = Indicates an unobserved value
Date modified: